Regional Weather Roundup
Issued by NWS Wakefield, VA

Home | Current Version | Previous Version | Graphics & Text | Print | Product List | Glossary On
Versions: 1 2 3 4 5 6 7 8 9 10 11 12 13 14 15 16 17 18 19 20 21 22 23 24 25 26 27 28
000
ASUS41 KAKQ 181815
RWRAKQ

REGIONAL WEATHER ROUNDUP
NATIONAL WEATHER SERVICE WAKEFIELD VA
200 PM EDT FRI AUG 18 2017

Note: "fair" indicates few or no clouds below 12,000 feet with no
significant weather and/or obstructions to visibility. * = Denotes
station may not report precipitation (e.g., rain,snow,etc.),
thunder or fog.

VAZ042-051-052>054-056-181900-
NORTHERN VIRGINIA

CITY           SKY/WX    TMP DP  RH WIND       PRES   REMARKS
WASH NATIONAL  MOSUNNY   89  80  74 S12       29.81F HX 106
DULLES         PTSUNNY   90  75  61 S8        29.81F HX 100
FORT BELVOIR   SUNNY     90  75  62 S8        29.81F HX 100
QUANTICO       MOSUNNY   88  81  79 S13       29.82F HX 106
FREDERICKSBRG* MOSUNNY   93  76  57 S8        29.81F HX 106
STAFFORD*      SUNNY     91  74  58 SW8       29.86F HX 101
WARRENTON      MOSUNNY   94  70  45 S8        29.81F HX 100
CULPEPER*      MOSUNNY   93  75  55 SW7       29.83F HX 103
MANASSAS*      MOSUNNY   92  76  59 S9        29.81F HX 104
LEESBURG*      MOSUNNY   93  77  59 S10       29.82F HX 107
WINCHESTER     PTSUNNY   88  72  58 SW8       29.82F
FRONT ROYAL*   MOCLDY    90  73  58 S3        29.82F HX  98
LURAY*         MOCLDY    90  70  51 S9G17     29.84F HX  95
$$

VAZ048-049-060>072-079>083-181900-
CENTRAL AND SOUTH CENTRAL VIRGINIA

CITY           SKY/WX    TMP DP  RH WIND       PRES   REMARKS
RICHMOND       MOSUNNY   89  78  70 S9        29.85F HX 103
CHESTERFIELD*  FAIR      90  77  65 VRB6      29.86F HX 103
PETERSBURG*    SUNNY     90  74  58 SW5       29.87F HX  98
HANOVER        SUNNY     91  75  59 SE8       29.85F HX 101
TAPPAHANNOCK*  SUNNY     91  73  55 S7        29.85F HX  99
QUINTON*       FAIR     N/A N/A N/A S6        29.85F
CHARLOTTSVILLE PTSUNNY   90  73  57 CALM      29.84F HX  98
GORDONSVILLE*  PTCLDY    92  73  54 S13       29.82F HX 100
ORANGE*        MOSUNNY   91  72  52 S6G17     29.83F HX  98
LOUISA*        MOSUNNY   91  73  55 S5        29.83F HX 100
BUMPASS*       MOCLDY    91  77  63 SW6G16    29.83F HX 103
FARMVILLE*     MOSUNNY   94  62  34 S13       29.84F HX  95
CREWE*         FAIR      92  69  46 SW5       29.86F HX  96
FORT PICKETT*  MOCLDY   N/A N/A N/A SW7       29.87F
CHASE CITY*    MOCLDY    92  77  60 S6        29.87F HX 105
CLARKSVILLE*   MOCLDY    90  77  66 S7        29.87F HX 102
SOUTH HILL*    MOSUNNY   90  79  71 S12       29.93F HX 106
LAWRENCEVILLE* MOCLDY    89  78  71 SW5       29.88F HX 102
EMPORIA*       PTSUNNY   88  77  70 SE7       29.88F HX 100
$$

VAZ088>098-181900-
SOUTHEAST VIRGINIA

CITY           SKY/WX    TMP DP  RH WIND       PRES   REMARKS
NORFOLK        NOT AVBL
VIRGINIA BEACH LGT RAIN  91  77  63 S8        29.85F HX 104
NORFOLK NAVAL  MOSUNNY   94  78  60 SW8       29.86F HX 110
WEST POINT*    MOSUNNY   90  76  63 S8        29.86F HX 101
SALUDA*        FAIR      89  81  76 S8        29.85F HX 108
NEWPORT NEWS   SUNNY     90  79  70 S13       29.86F HX 106
LANGLEY AFB    MOSUNNY   91  81  70 SW10      29.85F HX 110
FORT EUSTIS    SUNNY     92  80  67 SW6       29.84F HX 110
WILLIAMSBURG*  SUNNY     93  81  66 S5        29.87F HX 113
HR EXEC AP*    FAIR      93  79  62 SW12      29.82F HX 110
FRANKLIN*      MOSUNNY   90  79  70 S3        29.87F HX 106
US460-WAKEFLD  MOSUNNY   90  80  72 SW7       29.86F HX 107
$$

VAZ020-022-025-037-045-181900-
WEST CENTRAL AND SOUTHWEST VIRGINIA

CITY           SKY/WX    TMP DP  RH WIND       PRES   REMARKS
STAUNTON*      PTSUNNY   85  71  61 SW9       29.90S
WAYNESBORO*    CLEAR     88  71  57 SW9       29.90F
HOT SPRINGS VA CLOUDY    75  66  73 W15G23    30.06S
LYNCHBURG      MOSUNNY   92  69  47 S8G17     29.88F HX  97
DANVILLE       MOSUNNY   91  74  57 SW5       29.88F HX 100
SOUTH BOSTON*  FAIR      92  73  53 SW6       29.88F HX 101
MARTINSVILLE   SUNNY     89  71  55 S3        29.92F
ROANOKE        CLOUDY    92  68  45 W14G22    29.91F HX  96
BLACKSBURG     CLOUDY    87  71  60 SW9G16    30.00F
DUBLIN*        PTSUNNY   85  70  60 SW13G21   29.99F
MARION*        PTSUNNY   82  62  49 W14       30.03F
HILLSVILLE*    PTSUNNY   81  66  59 SW5       30.01F
RICHLANDS*     CLOUDY    75  67  77 S6        30.03F
WISE*          LGT RAIN  68  68 100 W12G22    30.08R
ABINGDON*      RAIN      78  72  81 W12G18    30.01S
$$

MDZ021>025-VAZ099-100-181900-
SOUTHERN MARYLAND AND THE DELMARVA PENINSULA

CITY           SKY/WX    TMP DP  RH WIND       PRES   REMARKS
PATUXENT RIVER MOSUNNY   88  80  77 S8        29.83F HX 104
BAY BRIDGE APT SUNNY     88  77  70 S12       29.83F HX 100
LEONARDTOWN    MOSUNNY   88  77  70 S6        29.85F HX 100
DOVER          PTSUNNY   88  77  70 S15       29.81F HX 100
GEORGETOWN     PTSUNNY   90  78  68 SW14      29.85S HX 104
EASTON         NOT AVBL
CAMBRIDGE      CLOUDY    86  79  79 S9G16     29.84F HX  99
SALISBURY      PTSUNNY   89  79  72 SW14      29.85F HX 104
OCEAN CITY     SUNNY     83  79  88 S13       29.87F
WALLOPS ISLAND MOSUNNY   85  80  85 S18       29.87F HX  99
ACCOMACK*      MOSUNNY   89  81  78 S13       29.86F HX 108
$$

NCZ012>017-030>032-181900-
NORTH CENTRAL AND EASTERN NORTH CAROLINA

CITY           SKY/WX    TMP DP  RH WIND       PRES   REMARKS
ROANOKE RAPIDS FAIR      90  79  70 SW6       29.88F HX 105
RALEIGH        MOSUNNY   95  76  53 W8        29.89F HX 108
ELIZABETH CITY MOSUNNY   92  81  70 S9        29.88F HX 112
AHOSKIE*         N/A     89  80  73 CALM      29.88F HX 105
EDENTON*       SUNNY     94  81  66 SW5       29.88F HX 113
CURRITUCK*     MOSUNNY   92  78  63 S6        29.89F HX 106
KILL DEVIL HLS SUNNY     88  78  71 CALM      29.88F HX 101
MANTEO         MOSUNNY   85  80  85 S14       29.91F HX  98
CAPE HATTERAS  NOT AVBL
TARBORO*       NOT AVBL
GOLDSBORO      MOSUNNY   93  81  66 SW12      29.87F HX 113
WASHINGTON     MOSUNNY   92  78  62 W6        29.89F HX 107
GREENVILLE     MOSUNNY   95  79  59 SW10      29.90F HX 112
NEW BERN       CLOUDY    89  75  63 S17       29.91S HX  99
WILMINGTON     MOSUNNY   94  76  55 SW10      29.91F HX 106
$$

VAZ048-181900-
ELSEWHERE

CITY           SKY/WX    TMP DP  RH WIND       PRES   REMARKS
HARRISBURG PA  CLOUDY    89  76  65 S7        29.76F HX 100
BALTIMORE      MOSUNNY   89  77  67 SW6       29.81F HX 101
ANNAPOLIS      MOSUNNY   86  82  88 SE16      29.82F HX 104
ANDREWS AFB    SUNNY     88  76  67 SW8       29.82F HX  99
PHILADELPHIA   CLOUDY    84  76  76 W10       29.83F
HENDERSON NC   MOSUNNY   88  74  63 S6        29.89F HX  97
GREENSBORO     PTSUNNY   90  71  53 W7        29.91F HX  96
ROCKY MOUNT    MOSUNNY   93  77  59 SW12      29.88F HX 107
$$

VAZ100-181900-
MARINE

STATION/POSITION TIME  TEMP    WIND        PRES    WAVE   SWELL
                       AIR SEA DIR/SP/G            HT/PER HT/PER
                 (UTC) (F)     (DEG/KT/KT) (MB)    (FT/S) (FT/S)
BRANDYWINE LGT   1742   79     170/ 12/ 12 1010.9F
CAPE MAY NJ      1748   81 79  170/ 13/ 19 1010.3F
LEWES DE         1742   89 76  200/  8/ 12 1010.3F
15NM E FENWICK I 1750   79 78  180/ 17/ 19 1011.8F   3/ 4   2/ 7
OCEAN-CITY-INLET 1748   79 80  210/ 14/ 17 1011.9F
WACHAPREAGUE VA  1748   85 84  190/ 13/ 17 1011.4F
THOMAS POINT MD  1800   81 80  160/ 14/ 15   N/A
GOOSES REEF MD   1800   83 81  170/ 10/ 14 1010.6    1/ 2
COVE POINT MD    1748   82     180/ 13/ 13 1010.9F
SOLOMONS ISLAND  1742   86 81  210/  8/ 11   N/A
BISHOPS HEAD MD  1748   83 82  170/ 13/ 15 1011.0F
PINEY POINT MD   1748          180/  4/  6   N/A
POTOMAC MD       1800   85 83  200/  2/  4 1009.8    1/ 3
CAMBRIDGE MD     1748   88 81              1011.3F
LEWISETTA VA     1748   87 81  220/  8/  9 1010.5F
RAPPAHANNOCK LGT 1748          180/ 11/ 12 1011.9F
STINGRAY PT      1800   84 82  190/ 10/ 12 1011.3    1/ 3
YORK RVR RNG VA  1748   87     220/  7/  7 1011.6F
YORKTOWN VA      1748   89 82  210/  5/  7 1010.7F
JAMESTOWN VA     1800      85  220/  6/  8   N/A     0
DOMINION TERM VA 1748   88     240/  7/  8 1011.1F
KIPTOPEKE VA     1748      82  180/ 12/ 14   N/A
CHES BAY BRIDGE  1748   83 81   50/  7/  9 1011.0F
CAPE HENRY VA    1748   85     130/ 13/ 16   N/A
WILLOUBY STN VA  1742   87     280/  7/  8 1011.2F
S CRANEY ISL VA  1748   91     220/  6/  9 1011.0F
CAPE HENRY BUOY  1800      80                N/A     2/ 6
1ST LANDING BUOY 1800   84 81              1010.7    1/ 4
64NM E OF VA BCH 1750   80 78  170/ 12/ 14 1013.2F   2/ 8   2/ 8
DUCK PIER NC     1748   81 75  140/ 12/ 14 1011.6F
44100 DUCK FRF   1705      81                N/A     2/ 8
44056 DUCK FRF   1800      79                N/A     2/ 8
OREGON INLET NC  1742   85 85  180/ 13/ 17 1013.0F
HATTERAS NC      1748   87 84  190/  5/ 10 1013.4F
DIAMOND SHLS NC  1750   85 86  190/ 14/ 16 1013.5F   2/ 5   2/ 8
CAPE LOOKOUT NC  1800   87     210/ 13/ 18 1013.2F
$$




USA.gov is the U.S. government's official web portal to all federal, state and local government web resources and services.